TimeEET,TemperatureF,Dew PointF,Humidity,Sea Level PressureIn,VisibilityMPH,Wind Direction,Wind SpeedMPH,Gust SpeedMPH,PrecipitationIn,Events,Conditions,WindDirDegrees,DateUTC
12:20 AM,51.8,48.2,88,29.80,6.2,Calm,Calm,-,N/A,,Overcast,0,2013-03-02 22:20:00
12:50 AM,53.6,48.2,82,29.80,6.2,SSW,6.9,-,N/A,,Overcast,210,2013-03-02 22:50:00
1:20 AM,53.6,48.2,82,29.83,6.2,Calm,Calm,-,N/A,,Overcast,0,2013-03-02 23:20:00
1:50 AM,53.6,48.2,82,29.83,6.2,SW,5.8,-,N/A,Rain,Light Rain,230,2013-03-02 23:50:00
2:00 AM,53,48,77,29.84,6,SW,5.8,,,Rain,Light Rain,230,2013-03-03 00:00:00
2:20 AM,51.8,48.2,88,29.83,6.2,NW,3.5,-,N/A,Rain,Light Rain,320,2013-03-03 00:20:00
2:50 AM,51.8,46.4,82,29.83,6.2,South,12.7,-,N/A,Rain,Light Rain,180,2013-03-03 00:50:00
3:20 AM,53.6,48.2,82,29.83,6.2,SSW,8.1,-,N/A,Rain,Light Rain,200,2013-03-03 01:20:00
3:50 AM,51.8,50.0,94,29.83,6.2,SW,4.6,-,N/A,Rain,Light Rain,220,2013-03-03 01:50:00
4:20 AM,51.8,50.0,94,29.86,6.2,SW,3.5,-,N/A,Rain,Light Rain,220,2013-03-03 02:20:00
4:50 AM,50.0,50.0,100,29.86,6.2,North,4.6,-,N/A,Rain,Light Rain,350,2013-03-03 02:50:00
5:20 AM,50.0,50.0,100,29.86,6.2,Calm,Calm,-,N/A,,Overcast,0,2013-03-03 03:20:00
5:50 AM,50.0,48.2,94,29.86,6.2,Calm,Calm,-,N/A,,Overcast,0,2013-03-03 03:50:00
6:20 AM,50.0,48.2,94,29.86,6.2,Calm,Calm,-,N/A,Rain,Light Rain,0,2013-03-03 04:20:00
6:50 AM,50.0,48.2,94,29.86,6.2,Calm,Calm,-,N/A,Rain,Light Rain,0,2013-03-03 04:50:00
7:20 AM,50.0,48.2,94,29.86,6.2,Calm,Calm,-,N/A,Rain,Light Rain,0,2013-03-03 05:20:00
7:50 AM,50.0,48.2,94,29.86,6.2,Calm,Calm,-,N/A,,Mostly Cloudy,0,2013-03-03 05:50:00
8:00 AM,50,47,88,29.88,12,Calm,Calm,,,Rain,Light Rain,,2013-03-03 06:00:00
8:20 AM,50.0,48.2,94,29.86,6.2,Calm,Calm,-,N/A,,Mostly Cloudy,0,2013-03-03 06:20:00
8:50 AM,50.0,48.2,94,29.89,6.2,NW,4.6,-,N/A,,Mostly Cloudy,310,2013-03-03 06:50:00
9:20 AM,51.8,48.2,88,29.89,6.2,NW,4.6,-,N/A,,Mostly Cloudy,310,2013-03-03 07:20:00
9:50 AM,55.4,50.0,82,29.89,6.2,Calm,Calm,-,N/A,,Mostly Cloudy,0,2013-03-03 07:50:00
10:20 AM,55.4,50.0,82,29.89,6.2,Calm,Calm,-,N/A,,Mostly Cloudy,0,2013-03-03 08:20:00
10:50 AM,55.4,51.8,88,29.89,6.2,NW,3.5,-,N/A,,Scattered Clouds,310,2013-03-03 08:50:00
11:20 AM,55.4,51.8,88,29.89,6.2,NW,3.5,-,N/A,,Scattered Clouds,310,2013-03-03 09:20:00
11:50 AM,55.4,51.8,88,29.89,6.2,NW,3.5,-,N/A,,Scattered Clouds,310,2013-03-03 09:50:00
12:20 PM,55.4,51.8,88,29.89,6.2,North,6.9,-,N/A,,Scattered Clouds,360,2013-03-03 10:20:00
12:50 PM,60.8,48.2,63,29.89,6.2,North,9.2,-,N/A,,Partly Cloudy,10,2013-03-03 10:50:00
1:50 PM,62.6,48.2,59,29.89,6.2,North,9.2,-,N/A,,Partly Cloudy,10,2013-03-03 11:50:00
2:00 PM,63,49,49,29.89,12,North,9.2,,,,Scattered Clouds,10,2013-03-03 12:00:00
2:20 PM,62.6,48.2,59,29.89,6.2,North,5.8,-,N/A,,Partly Cloudy,360,2013-03-03 12:20:00
2:50 PM,64.4,48.2,56,29.86,6.2,North,6.9,-,N/A,,Partly Cloudy,360,2013-03-03 12:50:00
3:20 PM,64.4,48.2,56,29.86,6.2,North,6.9,-,N/A,,Partly Cloudy,360,2013-03-03 13:20:00
3:50 PM,64.4,50.0,59,29.86,6.2,North,4.6,-,N/A,,Partly Cloudy,10,2013-03-03 13:50:00
4:20 PM,64.4,50.0,59,29.86,6.2,WNW,9.2,-,N/A,,Partly Cloudy,300,2013-03-03 14:20:00
4:50 PM,64.4,53.6,68,29.86,6.2,WNW,10.4,-,N/A,,Partly Cloudy,290,2013-03-03 14:50:00
5:20 PM,62.6,53.6,72,29.86,6.2,WNW,10.4,-,N/A,,Partly Cloudy,290,2013-03-03 15:20:00
5:50 PM,60.8,53.6,77,29.86,6.2,West,8.1,-,N/A,,Partly Cloudy,280,2013-03-03 15:50:00
6:20 PM,60.8,53.6,77,29.86,6.2,West,8.1,-,N/A,,Partly Cloudy,280,2013-03-03 16:20:00
6:50 PM,59.0,53.6,82,29.86,6.2,WNW,8.1,-,N/A,,Partly Cloudy,290,2013-03-03 16:50:00
7:20 PM,57.2,53.6,88,29.86,6.2,WNW,4.6,-,N/A,,Partly Cloudy,290,2013-03-03 17:20:00
7:50 PM,55.4,51.8,88,29.89,-9999.0,West,4.6,-,N/A,,Clear,280,2013-03-03 17:50:00
8:00 PM,55,51,81,29.90,6,West,4.6,,,,,280,2013-03-03 18:00:00
8:20 PM,53.6,50.0,88,29.89,-9999.0,West,4.6,-,N/A,,Clear,280,2013-03-03 18:20:00
8:50 PM,53.6,50.0,88,29.89,-9999.0,West,4.6,-,N/A,,Clear,280,2013-03-03 18:50:00
9:20 PM,53.6,50.0,88,29.89,-9999.0,West,4.6,-,N/A,,Clear,280,2013-03-03 19:20:00
9:50 PM,51.8,48.2,88,29.92,-9999.0,Calm,Calm,-,N/A,,Clear,0,2013-03-03 19:50:00
10:20 PM,51.8,48.2,88,29.92,-9999.0,Calm,Calm,-,N/A,,Clear,0,2013-03-03 20:20:00
10:50 PM,50.0,46.4,87,29.95,-9999.0,Calm,Calm,-,N/A,,Clear,0,2013-03-03 20:50:00
11:20 PM,48.2,46.4,93,29.95,-9999.0,Calm,Calm,-,N/A,,Clear,0,2013-03-03 21:20:00
11:50 PM,48.2,46.4,93,29.95,-9999.0,Calm,Calm,-,N/A,,Clear,0,2013-03-03 21:50:00